FW2297 Weather Reports


Display with metric or nautical units.
time (UTC)temp
F
wind
direction
speed
MPH
gust
MPH
rain 1hr
in
rain 24hr
in
rain mn
in
humidity
%
barometer
mb
20260831032055 60 0 0.0 0.0 0.00 0.08 0.08 90 1017.8
20260831031602 60 0 0.0 0.0 0.00 0.08 0.08 89 1017.8
20260831031052 60 0 0.0 3.0 0.00 0.08 0.08 88 1017.8
20260831030551 61 0 0.0 3.0 0.00 0.08 0.08 88 1018.1
20260831030059 61 0 0.0 3.0 0.00 0.08 0.08 88 1018.0
20260831025551 61 0 0.0 5.0 0.00 0.08 0.08 89 1017.9
20260831025051 61 0 0.0 5.0 0.00 0.08 0.08 90 1018.0
20260831024603 61 0 1.0 5.0 0.00 0.08 0.08 91 1018.1
20260831024052 62 0 0.0 0.0 0.00 0.08 0.08 92 1018.0
20260831023554 62 0 0.0 0.0 0.00 0.08 0.08 92 1018.2
20260831023056 62 0 0.0 2.0 0.00 0.08 0.08 93 1018.1
20260831022550 62 0 0.0 2.0 0.00 0.08 0.08 93 1018.1
20260831022051 62 0 0.0 2.0 0.00 0.08 0.08 94 1018.0
20260831021601 62 0 0.0 0.0 0.00 0.08 0.08 93 1018.0
20260831021051 62 0 0.0 0.0 0.00 0.08 0.08 93 1017.5
20260831020552 62 0 0.0 0.0 0.00 0.08 0.08 93 1017.4
20260831020058 62 0 0.0 0.0 0.00 0.08 0.08 93 1017.2
20260831015553 62 0 0.0 0.0 0.00 0.08 0.08 92 1017.3
20260831015048 62 0 0.0 0.0 0.00 0.08 0.08 92 1017.1
20260831014556 63 0 0.0 0.0 0.00 0.08 0.08 92 1017.1
20260831014049 63 0 0.0 0.0 0.00 0.08 0.08 92 1017.0
20260831013548 63 0 0.0 0.0 0.01 0.08 0.08 92 1016.9
20260831013110 63 0 0.0 0.0 0.01 0.08 0.08 92 1016.8
20260831012551 63 0 0.0 0.0 0.01 0.08 0.08 92 1016.9
20260831012054 63 0 0.0 0.0 0.02 0.08 0.08 92 1016.8
20260831011602 63 0 0.0 0.0 0.04 0.08 0.08 92 1016.9
20260831011050 63 0 0.0 0.0 0.06 0.08 0.08 91 1016.7
20260831010553 64 0 0.0 0.0 0.07 0.08 0.08 91 1016.7
20260831005551 64 0 0.0 0.0 0.08 0.08 0.08 90 1016.6
20260831005051 64 0 0.0 0.0 0.08 0.08 0.08 90 1016.6
20260831004603 64 0 0.0 0.0 0.08 0.08 0.08 89 1016.6
20260831004050 64 0 0.0 0.0 0.08 0.08 0.08 89 1016.7
20260831003552 65 0 0.0 0.0 0.07 0.07 0.07 88 1016.7
20260831003107 65 0 0.0 1.0 0.07 0.07 0.07 88 1016.7
20260831002551 65 0 0.0 1.0 0.07 0.07 0.07 87 1016.6
20260831002051 66 0 0.0 1.0 0.06 0.06 0.06 87 1016.7
20260831001600 66 0 0.0 0.0 0.04 0.04 0.04 86 1016.4
20260831001051 67 0 0.0 0.0 0.02 0.02 0.02 84 1016.2
20260831000551 67 0 0.0 0.0 0.01 0.01 0.01 82 1016.2
20260831000058 67 0 0.0 0.0 0.00 0.00 0.00 81 1015.7
20260830235551 67 0 0.0 0.0 0.00 0.00 0.00 81 1015.6
20260830235049 67 0 0.0 0.0 0.00 0.00 0.00 80 1015.7
20260830234603 68 0 0.0 0.0 0.00 0.00 0.00 78 1015.5
20260830234047 68 0 0.0 0.0 0.00 0.00 0.00 76 1015.5
20260830233549 68 0 0.0 0.0 0.00 0.00 0.00 75 1015.4
20260830233105 68 0 0.0 0.0 0.00 0.00 0.00 75 1015.5
20260830232548 68 0 0.0 0.0 0.00 0.00 0.00 74 1015.4
20260830232052 69 0 0.0 1.0 0.00 0.00 0.00 74 1015.4
20260830231558 69 0 0.0 1.0 0.00 0.00 0.00 73 1015.4
20260830231050 69 0 0.0 0.0 0.00 0.00 0.00 73 1015.4
20260830230550 69 0 0.0 0.0 0.00 0.00 0.00 73 1015.4
20260830230100 69 0 0.0 0.0 0.00 0.00 0.00 73 1015.3
20260830225550 69 0 0.0 0.0 0.00 0.00 0.00 73 1015.4
20260830225051 70 0 0.0 0.0 0.00 0.00 0.00 72 1015.4
20260830224558 70 0 0.0 0.0 0.00 0.00 0.00 72 1015.5
20260830224052 70 0 0.0 0.0 0.00 0.00 0.00 72 1015.5
20260830223551 70 0 0.0 0.0 0.00 0.00 0.00 72 1015.6
20260830223111 70 0 0.0 0.0 0.00 0.00 0.00 72 1015.5
20260830222552 70 0 0.0 0.0 0.00 0.00 0.00 71 1015.4
20260830222053 70 0 0.0 0.0 0.00 0.00 0.00 71 1015.5
20260830221555 71 0 0.0 0.0 0.00 0.00 0.00 71 1015.4
20260830221050 71 0 0.0 0.0 0.00 0.00 0.00 71 1015.5
20260830220551 71 0 0.0 0.0 0.00 0.00 0.00 70 1015.6
20260830220106 71 0 0.0 0.0 0.00 0.00 0.00 70 1015.7
20260830215549 71 0 0.0 0.0 0.00 0.00 0.00 69 1015.6
20260830215050 71 0 0.0 0.0 0.00 0.00 0.00 69 1015.6
20260830214618 71 0 0.0 0.0 0.00 0.00 0.00 68 1015.6
20260830214050 72 0 0.0 0.0 0.00 0.00 0.00 67 1015.5
20260830213551 72 0 0.0 0.0 0.00 0.00 0.00 66 1015.6
20260830213055 72 0 0.0 0.0 0.00 0.00 0.00 67 1015.8
20260830212552 72 0 0.0 0.0 0.00 0.00 0.00 66 1015.6
20260830212052 73 0 0.0 2.0 0.00 0.00 0.00 66 1015.6
20260830211602 73 0 0.0 2.0 0.00 0.00 0.00 64 1015.6
20260830211052 73 0 0.0 2.0 0.00 0.00 0.00 65 1015.7
20260830210552 74 0 0.0 3.0 0.00 0.00 0.00 66 1015.8
20260830210118 74 0 0.0 3.0 0.00 0.00 0.00 64 1015.9
20260830205553 74 0 0.0 1.0 0.00 0.00 0.00 62 1015.9
20260830205054 74 0 0.0 2.0 0.00 0.00 0.00 62 1015.7
20260830204601 74 0 0.0 2.0 0.00 0.00 0.00 63 1015.8
20260830204052 74 0 0.0 2.0 0.00 0.00 0.00 65 1015.8
20260830203552 74 0 0.0 3.0 0.00 0.00 0.00 63 1015.9
20260830203104 74 0 0.0 3.0 0.00 0.00 0.00 63 1015.6
20260830202552 73 0 0.0 5.0 0.00 0.00 0.00 62 1015.7
20260830202055 73 0 0.0 5.0 0.00 0.00 0.00 64 1015.9
20260830201604 73 0 0.0 5.0 0.00 0.00 0.00 63 1016.0
20260830201051 73 0 0.0 3.0 0.00 0.00 0.00 63 1016.0
20260830200554 73 0 0.0 4.0 0.00 0.00 0.00 65 1016.1
20260830200104 73 0 0.0 4.0 0.00 0.00 0.00 67 1016.2
20260830195715 73 0 0.0 4.0 0.00 0.00 0.00 68 1016.3
20260830195051 73 0 0.0 4.0 0.00 0.00 0.00 70 1016.2
20260830194602 72 1 0.0 4.0 0.00 0.00 0.00 74 1016.4
20260830194051 71 0 0.0 4.0 0.00 0.00 0.00 74 1016.5
20260830193551 71 0 0.0 4.0 0.00 0.00 0.00 73 1016.3
20260830193059 71 0 0.0 0.0 0.00 0.00 0.00 73 1016.5
20260830192551 71 0 0.0 4.0 0.00 0.00 0.00 73 1016.3
20260830192053 71 0 0.0 4.0 0.00 0.00 0.00 75 1016.3
20260830191603 70 0 0.0 3.0 0.00 0.00 0.00 75 1016.5
20260830191051 70 0 0.0 1.0 0.00 0.00 0.00 76 1016.4
20260830190551 70 0 0.0 1.0 0.00 0.00 0.00 77 1016.6
20260830190139 70 0 0.0 2.0 0.00 0.00 0.00 77 1016.5
20260830185552 70 0 0.0 2.0 0.00 0.00 0.00 78 1016.6
20260830185052 70 0 0.0 2.0 0.00 0.00 0.00 77 1016.7
20260830184624 69 0 0.0 1.0 0.00 0.00 0.00 78 1016.7
20260830184053 69 0 0.0 2.0 0.00 0.00 0.00 78 1016.9
20260830183551 69 0 0.0 2.0 0.00 0.00 0.00 78 1017.0
20260830183114 69 0 0.0 2.0 0.00 0.00 0.00 79 1017.1
20260830182552 69 0 0.0 1.0 0.00 0.00 0.00 81 1017.0
20260830182052 69 0 0.0 1.0 0.00 0.00 0.00 82 1017.1
20260830181603 69 0 0.0 3.0 0.00 0.00 0.00 82 1017.3
20260830181052 69 0 0.0 3.0 0.00 0.00 0.00 81 1017.2
20260830180551 68 0 0.0 5.0 0.00 0.00 0.00 82 1017.3
20260830180112 68 0 0.0 5.0 0.00 0.00 0.00 83 1017.4
20260830175551 68 0 0.0 5.0 0.00 0.00 0.00 84 1017.4
20260830175055 68 0 0.0 0.0 0.00 0.00 0.00 85 1017.7
20260830174614 67 0 0.0 2.0 0.00 0.00 0.00 85 1017.5
20260830174050 67 0 0.0 2.0 0.00 0.00 0.00 84 1017.7
20260830173553 67 0 0.0 2.0 0.00 0.00 0.00 84 1017.7
20260830173109 67 0 0.0 1.0 0.00 0.00 0.00 86 1017.8
20260830172551 67 0 0.0 0.0 0.00 0.00 0.00 85 1017.9
20260830172052 67 0 0.0 0.0 0.00 0.00 0.00 86 1018.3
20260830171608 67 0 0.0 0.0 0.00 0.00 0.00 85 1018.2
20260830171052 67 0 0.0 0.0 0.00 0.00 0.00 86 1018.6
20260830170553 67 0 0.0 0.0 0.00 0.00 0.00 85 1018.5
20260830165647 68 0 0.0 0.0 0.00 0.00 0.00 83 1018.3
20260830165047 68 0 0.0 0.0 0.00 0.00 0.00 82 1018.5
20260830164605 68 0 0.0 0.0 0.00 0.00 0.00 79 1018.3
20260830164051 68 0 0.0 0.0 0.00 0.00 0.00 79 1018.1
20260830163547 68 0 0.0 0.0 0.00 0.00 0.00 77 1018.1
20260830163104 68 0 0.0 0.0 0.00 0.00 0.00 77 1018.2
20260830162551 69 0 0.0 0.0 0.00 0.00 0.00 77 1018.3
20260830162050 69 0 0.0 0.0 0.00 0.00 0.00 76 1018.6
20260830161607 69 0 0.0 0.0 0.00 0.00 0.00 75 1018.4
20260830161051 69 0 0.0 0.0 0.00 0.00 0.00 76 1018.4
20260830160551 69 0 0.0 0.0 0.00 0.00 0.00 74 1018.5
20260830160104 69 0 0.0 1.0 0.00 0.00 0.00 72 1018.5
20260830155554 69 0 0.0 1.0 0.00 0.00 0.00 73 1018.5
20260830155051 69 0 0.0 1.0 0.00 0.00 0.00 70 1018.5
20260830154600 69 0 0.0 0.0 0.00 0.00 0.00 72 1018.5
20260830154050 69 0 0.0 1.0 0.00 0.00 0.00 70 1018.7
20260830153550 69 0 0.0 1.0 0.00 0.00 0.00 70 1018.7
20260830153110 69 0 0.0 0.0 0.00 0.00 0.00 69 1018.8
20260830152551 69 0 0.0 0.0 0.00 0.00 0.00 71 1018.7
20260830152051 69 0 0.0 2.0 0.00 0.00 0.00 71 1018.8
20260830151559 69 0 0.0 2.0 0.00 0.00 0.00 71 1018.8
20260830151051 69 0 0.0 0.0 0.00 0.00 0.00 71 1018.9
20260830150551 69 0 0.0 0.0 0.00 0.00 0.00 69 1018.8
20260830150110 69 0 0.0 0.0 0.00 0.00 0.00 70 1018.8
20260830145552 68 0 0.0 0.0 0.00 0.00 0.00 71 1018.8
20260830145053 68 0 0.0 0.0 0.00 0.00 0.00 71 1019.0
20260830144607 68 0 0.0 0.0 0.00 0.00 0.00 74 1018.9
20260830144050 67 0 0.0 0.0 0.00 0.00 0.00 75 1019.1
20260830143551 66 0 0.0 1.0 0.00 0.00 0.00 77 1019.0
20260830143108 66 0 0.0 1.0 0.00 0.00 0.00 78 1018.9
20260830142552 65 0 0.0 0.0 0.00 0.00 0.00 78 1019.0
20260830142052 65 0 0.0 0.0 0.00 0.00 0.00 80 1019.2
20260830141609 65 0 0.0 0.0 0.00 0.00 0.00 79 1018.9
20260830141051 64 0 0.0 0.0 0.00 0.00 0.00 80 1018.9
20260830140552 64 0 0.0 0.0 0.00 0.00 0.00 80 1019.0
20260830140104 64 0 0.0 0.0 0.00 0.00 0.00 81 1019.1
20260830135553 63 0 0.0 0.0 0.00 0.00 0.00 82 1018.8
20260830135051 63 0 0.0 0.0 0.00 0.00 0.00 82 1018.9
20260830134600 62 0 0.0 0.0 0.00 0.00 0.00 85 1019.1
20260830134338 62 0 0.0 0.0 0.00 0.00 0.00 84 1019.1
20260830132051 60 0 0.0 0.0 0.00 0.00 0.00 87 1019.1
20260830131603 60 0 0.0 0.0 0.00 0.00 0.00 88 1019.3
20260830131052 59 0 0.0 0.0 0.00 0.00 0.00 89 1019.1
20260830130644 59 0 0.0 0.0 0.00 0.00 0.00 91 1019.1
20260830130109 58 0 0.0 0.0 0.00 0.00 0.00 92 1019.2
20260830125651 57 0 0.0 0.0 0.00 0.00 0.00 94 1019.0
20260830125555 57 0 0.0 0.0 0.00 0.00 0.00 94 1019.0
20260830125301 57 0 0.0 0.0 0.00 0.00 0.00 94 1019.2
20260830124624 56 0 0.0 1.0 0.00 0.00 0.00 95 1019.4
20260830124053 56 0 0.0 1.0 0.00 0.00 0.00 95 1019.6
20260830123551 55 0 0.0 0.0 0.00 0.00 0.00 95 1019.4
20260830123059 54 0 0.0 1.0 0.00 0.00 0.00 96 1019.2
20260830122554 54 0 0.0 1.0 0.00 0.00 0.00 96 1019.4
20260830122050 54 0 0.0 0.0 0.00 0.00 0.00 95 1019.4
20260830121604 53 0 0.0 0.0 0.00 0.00 0.00 96 1019.5
20260830121048 53 0 0.0 1.0 0.00 0.00 0.00 95 1019.7
20260830120548 53 0 0.0 1.0 0.00 0.00 0.00 95 1019.6
20260830120104 53 0 0.0 1.0 0.00 0.00 0.00 96 1019.5
20260830115551 52 0 0.0 0.0 0.00 0.00 0.00 95 1019.7
20260830115054 52 0 0.0 0.0 0.00 0.00 0.00 96 1019.7
20260830114605 52 0 0.0 0.0 0.00 0.00 0.00 96 1019.8
20260830114051 52 0 0.0 0.0 0.00 0.00 0.00 95 1019.9
20260830113552 51 0 0.0 0.0 0.00 0.00 0.00 95 1019.8
20260830113105 51 0 0.0 0.0 0.00 0.00 0.00 95 1019.7
20260830112552 51 0 0.0 0.0 0.00 0.00 0.00 95 1019.7
20260830112052 51 0 0.0 0.0 0.00 0.00 0.00 95 1019.9
20260830111604 51 0 0.0 0.0 0.00 0.00 0.00 95 1019.8
20260830111052 51 0 0.0 0.0 0.00 0.00 0.00 95 1019.7
20260830110554 51 0 0.0 0.0 0.00 0.00 0.00 95 1019.7
20260830110059 51 0 0.0 0.0 0.00 0.00 0.00 95 1019.7
20260830105551 51 0 0.0 0.0 0.00 0.00 0.00 95 1019.9
20260830105048 51 0 0.0 0.0 0.00 0.00 0.00 95 1019.7
20260830104607 51 0 0.0 0.0 0.00 0.00 0.00 95 1019.6
20260830104051 51 0 0.0 0.0 0.00 0.00 0.00 95 1019.6
20260830103552 50 0 0.0 0.0 0.00 0.00 0.00 95 1019.6
20260830103107 50 0 0.0 0.0 0.00 0.00 0.00 95 1019.6
20260830102552 50 0 0.0 0.0 0.00 0.00 0.00 95 1019.5
20260830102050 50 0 0.0 0.0 0.00 0.00 0.00 95 1019.7
20260830101558 50 0 0.0 0.0 0.00 0.00 0.00 95 1019.7
20260830101048 50 0 0.0 0.0 0.00 0.00 0.00 95 1019.7
20260830100555 50 0 0.0 0.0 0.00 0.00 0.00 95 1019.9
20260830100107 50 0 0.0 0.0 0.00 0.00 0.00 95 1019.9
20260830095548 50 0 0.0 0.0 0.00 0.00 0.00 95 1019.9
20260830095049 50 0 0.0 0.0 0.00 0.00 0.00 95 1020.0
20260830094559 50 0 0.0 0.0 0.00 0.00 0.00 95 1020.1
20260830094053 50 0 0.0 0.0 0.00 0.00 0.00 95 1020.0
20260830093551 50 0 0.0 0.0 0.00 0.00 0.00 95 1019.8
20260830093103 50 0 0.0 0.0 0.00 0.00 0.00 95 1019.8
20260830092553 50 0 0.0 0.0 0.00 0.00 0.00 95 1019.9
20260830092055 50 0 0.0 0.0 0.00 0.00 0.00 94 1019.8
20260830091600 50 0 0.0 0.0 0.00 0.00 0.00 94 1019.8
20260830091052 50 0 0.0 0.0 0.00 0.00 0.00 95 1020.0
20260830090551 50 0 0.0 0.0 0.00 0.00 0.00 95 1020.1
20260830085550 51 0 0.0 0.0 0.00 0.00 0.00 94 1020.1
20260830085051 50 0 0.0 0.0 0.00 0.00 0.00 94 1020.2
20260830084602 51 0 0.0 0.0 0.00 0.00 0.00 94 1020.2
20260830084054 51 0 0.0 0.0 0.00 0.00 0.00 94 1019.9
20260830083553 51 0 0.0 0.0 0.00 0.00 0.00 94 1020.0
20260830083108 51 0 0.0 0.0 0.00 0.00 0.00 94 1020.0
20260830082550 51 0 0.0 0.0 0.00 0.00 0.00 94 1020.0
20260830082053 51 0 0.0 0.0 0.00 0.00 0.00 94 1020.1
20260830081609 51 0 0.0 0.0 0.00 0.00 0.00 94 1020.3
20260830081050 51 0 0.0 0.0 0.00 0.00 0.00 94 1020.3
20260830080551 51 0 0.0 0.0 0.00 0.00 0.00 94 1020.3
20260830080059 51 0 0.0 0.0 0.00 0.00 0.00 94 1020.2
20260830075551 51 0 0.0 0.0 0.00 0.00 0.00 94 1020.4
20260830075053 51 0 0.0 0.0 0.00 0.00 0.00 94 1020.3
20260830074607 51 0 0.0 0.0 0.00 0.00 0.00 94 1020.1
20260830074051 51 0 0.0 0.0 0.00 0.00 0.00 94 1020.2
20260830073550 51 0 0.0 0.0 0.00 0.00 0.00 94 1020.2
20260830073117 51 0 0.0 0.0 0.00 0.00 0.00 94 1020.0
20260830072550 51 0 0.0 0.0 0.00 0.00 0.00 94 1019.9
20260830072050 51 0 0.0 0.0 0.00 0.00 0.00 94 1020.1
20260830071600 51 0 0.0 0.0 0.00 0.00 0.00 94 1020.2
20260830071053 51 0 0.0 0.0 0.00 0.00 0.00 94 1020.1
20260830070637 51 0 0.0 0.0 0.00 0.00 0.00 94 1020.1
20260830070105 51 0 0.0 0.0 0.00 0.00 0.00 94 1020.1
20260830065550 51 0 0.0 0.0 0.00 0.00 0.00 94 1020.1
20260830065051 51 0 0.0 0.0 0.00 0.00 0.00 94 1020.2
20260830064556 51 0 0.0 0.0 0.00 0.00 0.00 94 1020.2
20260830064051 51 0 0.0 0.0 0.00 0.00 0.00 94 1020.2
20260830063551 51 0 0.0 0.0 0.00 0.00 0.00 94 1020.3
20260830063112 51 0 0.0 0.0 0.00 0.00 0.00 93 1020.3
20260830062550 51 0 0.0 0.0 0.00 0.00 0.00 93 1020.4
20260830062050 51 0 0.0 0.0 0.00 0.00 0.00 93 1020.6
20260830061600 51 0 0.0 0.0 0.00 0.00 0.00 93 1020.4
20260830061050 51 0 0.0 0.0 0.00 0.00 0.00 93 1020.3
20260830060551 51 0 0.0 0.0 0.00 0.00 0.00 93 1020.5
20260830055548 51 0 0.0 0.0 0.00 0.00 0.00 93 1020.6
20260830055049 51 0 0.0 0.0 0.00 0.00 0.00 93 1020.7
20260830054602 51 0 0.0 0.0 0.00 0.00 0.00 93 1020.8
20260830054050 51 0 0.0 0.0 0.00 0.00 0.00 93 1020.5
20260830053552 51 0 0.0 0.0 0.00 0.00 0.00 92 1020.5
20260830053101 51 0 0.0 0.0 0.00 0.00 0.00 92 1020.6
20260830052551 51 0 0.0 0.0 0.00 0.00 0.00 92 1020.7
20260830052051 51 0 0.0 0.0 0.00 0.00 0.00 92 1020.6
20260830051602 51 0 0.0 0.0 0.00 0.00 0.00 92 1020.7
20260830051048 51 0 0.0 0.0 0.00 0.00 0.00 92 1020.7
20260830050549 51 0 0.0 0.0 0.00 0.00 0.00 92 1020.8
20260830050100 52 0 0.0 0.0 0.00 0.00 0.00 91 1020.8
20260830045552 52 0 0.0 0.0 0.00 0.00 0.00 91 1020.8
20260830045054 52 0 0.0 0.0 0.00 0.00 0.00 91 1020.8
20260830044603 52 0 0.0 0.0 0.00 0.00 0.00 91 1020.7
20260830044051 52 0 0.0 0.0 0.00 0.00 0.00 91 1020.7
20260830043550 52 0 0.0 0.0 0.00 0.00 0.00 91 1020.8
20260830043102 52 0 0.0 0.0 0.00 0.00 0.00 90 1020.8
20260830042551 52 0 0.0 0.0 0.00 0.00 0.00 90 1020.8
20260830042054 52 0 0.0 0.0 0.00 0.00 0.00 90 1020.7
20260830041608 52 0 0.0 0.0 0.00 0.00 0.00 90 1020.8
20260830041053 52 0 0.0 0.0 0.00 0.00 0.00 90 1020.7
20260830040555 53 0 0.0 0.0 0.00 0.00 0.00 90 1020.5
20260830040157 53 0 0.0 0.0 0.00 0.00 0.00 90 1020.5
20260830035551 53 0 0.0 0.0 0.00 0.00 0.00 90 1020.6
20260830035049 52 0 0.0 0.0 0.00 0.00 0.00 90 1020.7
20260830034620 53 0 0.0 0.0 0.00 0.00 0.00 89 1020.7
20260830034049 53 0 0.0 0.0 0.00 0.00 0.00 89 1020.6
20260830033554 53 0 0.0 0.0 0.00 0.00 0.00 89 1020.6
20260830033112 53 0 0.0 0.0 0.00 0.00 0.00 88 1020.7
20260830032551 53 0 0.0 0.0 0.00 0.00 0.00 88 1020.6